TimeCEST,TemperatureF,Dew PointF,Humidity,Sea Level PressureIn,VisibilityMPH,Wind Direction,Wind SpeedMPH,Gust SpeedMPH,PrecipitationIn,Events,Conditions,WindDirDegrees,DateUTC
6:00 AM,55.4,53.6,94,30.15,6.2,NW,2.3,-,N/A,,Partly Cloudy,320,2012-10-09 04:00:00
6:30 AM,57.2,53.6,88,30.15,6.2,West,1.2,-,N/A,,Scattered Clouds,270,2012-10-09 04:30:00
7:00 AM,55.4,53.6,94,30.12,6.2,WSW,2.3,-,N/A,,Scattered Clouds,240,2012-10-09 05:00:00
7:30 AM,55.4,53.6,94,30.12,6.2,SSW,3.5,-,N/A,,Scattered Clouds,200,2012-10-09 05:30:00
8:00 AM,55.4,53.6,94,30.15,6.2,SSW,3.5,-,N/A,,Partly Cloudy,200,2012-10-09 06:00:00
8:30 AM,55.4,53.6,94,30.15,6.2,South,3.5,-,N/A,,Partly Cloudy,190,2012-10-09 06:30:00
9:00 AM,53.6,51.8,94,30.15,6.2,SW,3.5,-,N/A,,Partly Cloudy,220,2012-10-09 07:00:00
9:30 AM,57.2,55.4,94,30.15,6.2,SW,2.3,-,N/A,,Partly Cloudy,220,2012-10-09 07:30:00
10:00 AM,57.2,55.4,94,30.15,6.2,SSW,2.3,-,N/A,,Partly Cloudy,210,2012-10-09 08:00:00
10:30 AM,60.8,57.2,88,30.18,6.2,Variable,2.3,-,N/A,,Partly Cloudy,0,2012-10-09 08:30:00
11:00 AM,64.4,57.2,77,30.18,6.2,Variable,1.2,-,N/A,,Partly Cloudy,0,2012-10-09 09:00:00
11:30 AM,66.2,59.0,78,30.18,6.2,SSW,3.5,-,N/A,,Partly Cloudy,210,2012-10-09 09:30:00
12:00 PM,68.0,59.0,73,30.15,6.2,South,5.8,-,N/A,,Partly Cloudy,190,2012-10-09 10:00:00
1:00 PM,69.8,57.2,64,30.15,6.2,SW,10.4,-,N/A,,Partly Cloudy,220,2012-10-09 11:00:00
1:30 PM,69.8,57.2,64,30.15,6.2,SW,9.2,-,N/A,,Partly Cloudy,220,2012-10-09 11:30:00
2:00 PM,71.6,57.2,60,30.15,6.2,SW,9.2,27.6,N/A,,Scattered Clouds,230,2012-10-09 12:00:00
2:30 PM,71.6,57.2,60,30.12,6.2,WSW,8.1,-,N/A,,Scattered Clouds,250,2012-10-09 12:30:00
3:00 PM,73.4,57.2,57,30.12,6.2,WSW,6.9,-,N/A,,Scattered Clouds,240,2012-10-09 13:00:00
3:30 PM,75.2,57.2,53,30.12,6.2,WSW,12.7,-,N/A,,Scattered Clouds,250,2012-10-09 13:30:00
4:00 PM,73.4,57.2,57,30.09,6.2,WSW,12.7,-,N/A,,Scattered Clouds,250,2012-10-09 14:00:00
4:30 PM,75.2,57.2,53,30.09,6.2,West,11.5,-,N/A,,Scattered Clouds,260,2012-10-09 14:30:00
5:00 PM,75.2,57.2,53,30.09,6.2,WNW,11.5,-,N/A,,Scattered Clouds,290,2012-10-09 15:00:00
5:30 PM,73.4,57.2,57,30.09,6.2,West,9.2,-,N/A,,Scattered Clouds,280,2012-10-09 15:30:00
6:00 PM,73.4,57.2,57,30.09,6.2,WNW,8.1,-,N/A,,Scattered Clouds,290,2012-10-09 16:00:00
6:30 PM,73.4,59.0,61,30.09,6.2,NNW,11.5,-,N/A,,Scattered Clouds,330,2012-10-09 16:30:00
7:00 PM,71.6,57.2,60,30.09,6.2,NW,10.4,-,N/A,,Scattered Clouds,320,2012-10-09 17:00:00
7:30 PM,69.8,59.0,68,30.09,6.2,NNW,11.5,-,N/A,,Scattered Clouds,330,2012-10-09 17:30:00
8:00 PM,68.0,59.0,73,30.09,6.2,NNW,11.5,-,N/A,,Partly Cloudy,330,2012-10-09 18:00:00
8:30 PM,66.2,59.0,78,30.09,6.2,NW,9.2,-,N/A,,Partly Cloudy,320,2012-10-09 18:30:00
9:00 PM,66.2,60.8,83,30.09,6.2,WNW,5.8,-,N/A,,Partly Cloudy,300,2012-10-09 19:00:00
9:30 PM,66.2,59.0,78,30.09,6.2,WNW,2.3,-,N/A,,Partly Cloudy,290,2012-10-09 19:30:00
10:00 PM,66.2,59.0,78,30.09,6.2,West,3.5,-,N/A,,Partly Cloudy,280,2012-10-09 20:00:00
10:30 PM,64.4,59.0,83,30.09,6.2,West,3.5,-,N/A,,Partly Cloudy,270,2012-10-09 20:30:00